Location: Austin
(30.3000°N, 97.7500°W)
Time: 22:13:51
(UTC-06:00)

Cosmos 2219 Rocket - Pass Details

Date: 03 October 2025
Orbit: 825 x 847 km, 71.0° (Epoch: 08 December)

Event Time Altitude Azimuth Distance (km) Brightness Sun altitude
Rises 21:47:18 0° 347° (NNW) 3,403 5.7 -33.7°
Reaches altitude 10° 21:49:51 10° 353° (N) 2,468 4.8 -34.3°
Enters shadow 21:50:57 16° 357° (N) 2,083 4.4 -34.5°
